Current Conditions for Foresthill, CA. Clear skies, Dry   
Visibility:
Space WX Alerts: CONTINUED ALERT:  Electron 2MeV Integral Flux exceeded 1000pfu ( Latest Alert ) - Issue Time: 2018 Aug 21 0636 UTC

  Summary / Temperature 

Current Temperature
67.5°F
19.7°C
(24/hr Ago)
71.7°F
(Apparent temp)
67.1°F
Comfortable
Wind Chill Graphs
°F 

69.0°F/ 20.6°C
 --- Virtual Temp: °F ---

 Temp Rate:

 24/hr Difference:

 Avg Running Temp:

 Todays High:

 Todays Low:

 Y-days High:

 Y-days Low:

 Todays WChill:

 Y-days WChill:

 Evapotranspiration:

-3.9°F/hr 

-4.2°F

°F

°F 

°F 

°F 

°F 

°F 

°F 

0.200 in

115' Above Ground

 Temperature:

 6'AGL VRS 115'AGL:

 Avg Running Temp:

 Humidity:

 Todays High:

 Todays Low:

 Y-days High:

 Y-days Low:

°F 

+4.5°F

°F

% 

°F 

°F 

°F

°F

Temp & Humidity Graphs

  Wind 

Wind Speed

 Calm

Gusting to

 None

Wind from WSW

242°  WSW

Calm

 Avg speed:

 Wind Run:

 Peak Gust:

Calm 

.0 miles

  16.0 mph 5:19am

  Almanac  

Moon age: 10 days,21 hours,46 minutes,84%

Waxing Gibbous
84%
Illuminated
10 days in cycle

 Moonrise:

 Moonset:

 Sunrise:

 Sunset:

 Solar Noon:

1:06pm

2min 18s less daylight tomorrow 

  Solar Radiation 

(Current Solar)
  No Sun Light
(Todays High)
  W/m2@

Rain

 Rain Today:

 Rain Rate (/hr):

 Rain last hour:

 Rain Yesterday:

 This Month:

 Season Total:

87 Days Since Last Rain Day

0.00 in

0.000 in

0.00 in

0.00 in

0.00 in

0.00 in

Updated Time

Updated:   

(Updated  sec ago)

Humidity & Barometer

 Humidity:

 Wetbulb:

 Dew Point:

 Barometer:

50% 

57.2°F 

48.2°F 

29.915 inHg 

 Baro Trend:  Steady 
Northern Calif
Preparedness
Fire 
Level 

    UV Index  

(Current UV)
0.0  None
(Todays High) @ 
   None

National Weather Service Forecast

Foresthill Probe 2 Stats  
Foresthill Probe 2: is located on Thomas Street
at 3000 feet. The main Foresthill Weather site
is located on Melody ln at the 2860 foot elevation

Calm
67.5°F
19.7°C
Temp Rate:
-3.6°F
Calm
Gusting to
None
(Humidity)
49%
Calm
234°  
Updated: 21/08/18 - 21:20:23
 Todays High: 86.3°F 14:21
 Todays Low: 63.9°F 07:19
 Rain Today: 0.00 in
 Season Total: 0.00 in

Foresthill Wx: Monthly,Yearly, Highs and Lows 

Foresthill  
This Weather Data is coming from the main Foresthill
Weather site located on Melody ln at the 2860 foot
elevation
Not Foresthill Probe 2
Weather Data
Month
  High
Month
  Low
Year
High
Year
Low
Temp 93.9°F
8/10/18
63.0°F
8/6/18
93.9°F
8/10/18
21.9°F
2/23/18
Humidity 58%
8/7/18
14%
8/1/18
100%
1/8/18
12%
7/8/18
Heat Index 90.9°F
8/10/18
63.0°F
8/6/18
93.3°F
7/25/18
27.1°F
2/20/18
Wind Chill 93.9°F
8/10/18
62.0°F
8/6/18
93.9°F
8/10/18
9.2°F
2/23/18
Wind Gust 21 mph
8/5/18
0 mph
8/1/18
43 mph
3/1/18
0 mph
1/1/18
Barometer 30.03 in
8/18/18
29.81 in
8/20/18
30.55 in
1/27/18
29.60 in
6/16/18
ET 0.23 in
8/12/18
0.00 in
8/1/18
0.25 in
6/24/18
0.00 in
1/1/18
Dew Point 58.7°F
8/1/18
33.2°F
8/4/18
66.9°F
7/24/18
7.6°F
2/11/18
Pacific Satellite US Radar Satellite Imagery Sacramento,CA.  (click to enlarge)
NWS Weather Forecast - Summary
Updated: Tuesday, August 21, 2018 - 3:15pm PDT
Current Interstate Highway Conditions for I-80 & US-50

[I 80: IN THE SAN FRANCISCO BAY AREA - SOLANO CO]
no traffic restrictions are reported for this area.

[I 80: IN THE NORTHERN CALIFORNIA AREA & SIERRA NEVADA]
no traffic restrictions are reported for this area.

[US 50: IN THE SACRAMENTO VALLEY & THE LAKE TAHOE BASIN]
  1-way controlled traffic at various locations from 0. 3 mi east to 1. 3 mi east of echo summit (EL DORADO CO) from 6:00am to 5:00pm tuesday thru wednesday thru 8/22/18 - due to maintenance
NWS Weather Forecast: and (Updated: )

NWS forecast:

NWS forecast:
YR.NO 10 Day Weather forecast
Last update: 08/21/2018 @ 12:38
Next update: 08/22/2018 @ 01:00
Provided by: 22
      Temperature Precipitation Pressure Wind  
Today
08/21/2018
18:00 00:00 79°F   29.90 inHg Light breeze from southwest 5 mph
    (Click to enlarge)
meteogram

    Forecast for next 9 days

      Temperature Precip Pressure Wind  
Wednesday
08/22/2018
00:00 06:00 59°F   29.96 inHg Light air from east 2 mph
  06:00 12:00 54°F   29.96 inHg Light breeze from east-northeast 4 mph
  12:00 18:00 82°F   29.99 inHg Light breeze from southwest 6 mph
  18:00 00:00 79°F   29.94 inHg Light breeze from southwest 5 mph
      Temperature Precip Pressure Wind  
Thursday
08/23/2018
00:00 06:00 59°F   30.00 inHg Light air from east 2 mph
  06:00 12:00 54°F   29.98 inHg Light breeze from east-northeast 4 mph
  12:00 18:00 81°F   30.00 inHg Light breeze from southwest 6 mph
  18:00 00:00 79°F   29.92 inHg Light breeze from southwest 5 mph
      Temperature Precip Pressure Wind  
Friday
08/24/2018
00:00 06:00 59°F   29.95 inHg Light air from east 2 mph
  05:00 11:00 52°F   29.91 inHg Light air from east-northeast 3 mph
  11:00 17:00 79°F   29.92 inHg Light breeze from southwest 5 mph
  17:00 23:00 81°F   29.84 inHg Light breeze from southwest 6 mph
  23:00 05:00 63°F   29.89 inHg Light air from east 2 mph
      Temperature Precip Pressure Wind  
Saturday
08/25/2018
05:00 11:00 52°F   29.87 inHg Light breeze from east-northeast 6 mph
  11:00 17:00 81°F   29.89 inHg Light breeze from southwest 6 mph
  17:00 23:00 81°F   29.84 inHg Light breeze from southwest 7 mph
  23:00 05:00 61°F   29.89 inHg Light breeze from east 4 mph
      Temperature Precip Pressure Wind  
Sunday
08/26/2018
05:00 11:00 54°F   29.87 inHg Light breeze from east 4 mph
  11:00 17:00 75°F   29.91 inHg Gentle breeze from south-southwest 8 mph
  17:00 23:00 75°F   29.86 inHg Gentle breeze from south-southwest 8 mph
  23:00 05:00 59°F   29.87 inHg Light breeze from east-southeast 4 mph
      Temperature Precip Pressure Wind  
Monday
08/27/2018
05:00 11:00 55°F   29.86 inHg Light breeze from east-southeast 5 mph
  11:00 17:00 68°F   29.90 inHg Gentle breeze from south-southwest 9 mph
  17:00 23:00 70°F   29.84 inHg Gentle breeze from south-southwest 9 mph
  23:00 05:00 57°F   29.89 inHg Light breeze from south-southeast 5 mph
      Temperature Precip Pressure Wind  
Tuesday
08/28/2018
05:00 11:00 52°F   29.90 inHg Light air from south 3 mph
  11:00 17:00 66°F   29.96 inHg Light breeze from south-southwest 7 mph
  17:00 23:00 68°F   29.92 inHg Light breeze from southwest 6 mph
  23:00 05:00 54°F   29.98 inHg Light air from south-southeast 1 mph
      Temperature Precip Pressure Wind  
Wednesday
08/29/2018
05:00 11:00 46°F   29.94 inHg Light breeze from east-northeast 4 mph
  11:00 17:00 72°F   29.95 inHg Light breeze from west-southwest 6 mph
  17:00 23:00 75°F   29.88 inHg Light breeze from southwest 6 mph
  23:00 05:00 59°F   29.91 inHg Light breeze from east 4 mph
      Temperature Precip Pressure Wind  
Thursday
08/30/2018
05:00 11:00 52°F   29.86 inHg Light breeze from east 5 mph
  11:00 17:00 70°F   29.91 inHg Gentle breeze from south-southwest 8 mph
  17:00 23:00 72°F   29.86 inHg Light breeze from south-southwest 7 mph
  23:00 05:00 55°F   29.91 inHg Light air from east-southeast 2 mph
How Close Are We To this Month's Temperature Record ?
Updated Tuesday, Aug 21, 2018- 9:20:00 PM

Current Temperature: 67.5°F

August's High: Temperature Record 97.8°F - Set on Sat, Aug 11, 2012 - 2:34:00 PM
We are currently 30.3°F Less than this Month's record High

August's Low: Temperature Record 57.5°F - Set on Sun, Aug 30, 2015 - 7:31:00 AM
We are currently 10°F More than this Month's record Low

Weather History For Wednesday, August 22, 2018


On this Day - In Weather History ...
Data courtesy of weatherforyou.com
powered by Cumulus v1.9.3 (1059)
Ambient Weather VWS v14.00
Top Contact Website Map Copyright © 2007 - 2018 Foresthillweather.com Never base important decisions on this or any weather information obtained from the Internet